This demonstration page uses our WeatherBlox Daily Observations layout. Learn more.

Left ArrowRight Arrow

36.19886, -115.1175

Hourly Observations for January 7, 2022

Temp ( °F °C ) Dew Point ( °F °C ) Humidity (%) Winds ( mph kmh ) Pressure ( in mb ) Visibility ( mi km ) Precip ( " mm )
12:53 am 00:53 Clear 42 5.6 30 -1.1 62 62 NW 5 7 29.97 1015 10 16 0.00 0.00
1:53 am 01:53 Clear 42 5.6 30 -1.1 62 62 WNW 5 7 29.97 1015 10 16 0.00 0.00
2:53 am 02:53 Clear 41 5 30 -1.1 65 65 NNW 5 7 29.95 1014 10 16 0.00 0.00
3:53 am 03:53 Clear 40 4.4 29 -1.7 65 65 Calm 29.93 1014 10 16 0.00 0.00
4:53 am 04:53 Clear 40 4.4 29 -1.7 65 65 WNW 3 6 29.93 1014 10 16 0.00 0.00
5:53 am 05:53 Clear 40 4.4 29 -1.7 65 65 WSW 5 7 29.93 1014 10 16 0.00 0.00
6:53 am 06:53 Sunny 39 3.9 28 -2.2 65 65 WNW 5 7 29.94 1014 10 16 0.00 0.00
7:53 am 07:53 Sunny 43 6.1 30 -1.1 60 60 Calm 29.94 1014 10 16 0.00 0.00
8:53 am 08:53 Sunny 49 9.4 30 -1.1 48 48 Calm 29.94 1014 10 16 0.00 0.00
9:53 am 09:53 Sunny 53 11.7 30 -1.1 41 41 ENE 6 9 29.94 1014 10 16 0.00 0.00
10:53 am 10:53 Sunny 56 13.3 30 -1.1 37 37 VRB 3 6 29.92 1013 10 16 0.00 0.00
11:53 am 11:53 Sunny 58 14.4 30 -1.1 35 35 E 5 7 29.88 1012 10 16 0.00 0.00
12:53 pm 12:53 Sunny 61 16.1 31 -0.6 32 32 undefined N/A 29.85 1011 10 16 0.00 0.00
1:53 pm 13:53 Sunny 63 17.2 31 -0.6 30 30 Calm 29.82 1010 10 16 0.00 0.00
2:53 pm 14:53 Sunny 63 17.2 31 -0.6 30 30 E 3 6 29.80 1009 10 16 0.00 0.00
3:53 pm 15:53 Sunny 63 17.2 31 -0.6 30 30 E 3 6 29.79 1009 10 16 0.00 0.00
4:53 pm 16:53 Clear 61 16.1 30 -1.1 31 31 WNW 5 7 29.80 1009 10 16 0.00 0.00
5:53 pm 17:53 Clear 61 16.1 30 -1.1 31 31 Calm 29.80 1009 10 16 0.00 0.00
6:53 pm 18:53 Clear 59 15 30 -1.1 33 33 NE 8 13 29.81 1010 10 16 0.00 0.00
7:53 pm 19:53 Clear 58 14.4 30 -1.1 35 35 ENE 10 17 29.80 1009 10 16 0.00 0.00
8:53 pm 20:53 Clear 57 13.9 30 -1.1 36 36 S 5 7 29.78 1009 10 16 0.00 0.00
9:53 pm 21:53 Clear 56 13.3 30 -1.1 37 37 Calm 29.78 1008 10 16 0.00 0.00
10:53 pm 22:53 Clear 55 12.8 30 -1.1 38 38 Calm 29.78 1009 10 16 0.00 0.00
11:53 pm 23:53 Clear 54 12.2 30 -1.1 40 40 NNW 3 6 29.78 1009 10 16 0.00 0.00

Powered by AerisWeather